STARLINK-34213, 64148

Orbit data source: Space-Track

STARLINK-34213, 64148 is a payload satellite owned by SpaceX/Seattle (US) in SSO that was launched on Tue, 27 May 2025 UTC via an FALCON 9 launch vehicle from the Air Force Western Test Range (AFWTR). Payload-class satellites include a variety of spacecraft equipped with specific instruments for various scientific and technological missions. These include communications satellites like Starlink; space stations such as the ISS; scientific satellites like the Hubble; Earth observation satellites from companies like Planet Labs, Umbra, and HawkEye 360; GPS; miniature CubeSats for education and research; and military/defense satellites.

Loading next visibility...
Identifier
64148, 2025-112C
Orbit
SSO
Country
Flag of USUS
Related business
Manufacturer
SpaceX/Seattle
Mission
Operational Commercial Communications
Bus & Motor
STARLINK V2MO, Unknown motor
Mass
575 kg wet, ~530 kg dry
Launch date (UTC)
2025-05-27 (1 year ago)
Launch vehicle
FALCON 9
Launch site
Air Force Western Test Range (AFWTR)
Object type
Payload
Rocket body
Debris
Shape & HBR
Box + 2 Pan, 17.7 m
Radar Cross Section
36.964 m², Large (>1 m²)

Expand to show TLE details & history
Last TLE update: 15 hours ago

TLE from 15 hours ago
0 STARLINK-34213
1 64148U 25112C   26145.10429712  .00005519  00000-0  38613-3 0  9992
2 64148  97.4463 196.4250 0002437 108.5519 251.5973 15.05660779 54805
Epoch: 2026-05-25T02:30Z
TLE epoch observation values (Epoch: 2026-05-25T02:30:11.271Z)
Latitude
-0.00002°
Longitude
-83.81884°
Altitude
553.081 km
Speed
7.585 km/s
True Right ascension
13h 05m 42s
True Declination
0° 00' 00"
Sunlit
Object was in full shadow at epoch
Visualization orbit readout
Latitude
Unknown
Longitude
Unknown
Altitude
Unknown
Speed
Unknown
Apparent Right ascension
Unknown
Apparent Declination
Unknown
Sunlit
N/A
Visualization observer readout
Local Sidereal Time
02:49:39
Azimuth
Unknown
Elevation
Unknown
Doppler factor
Unknown
Orbital elements
Apogee altitude
548.152 km
Perigee altitude
544.777 km
Semi-major axis
6,924.602 km
Eccentricity
0.00024
Inclination
97.4463°
RAAN
196.425°
Arg. of periapsis
108.5519°
True anomaly
251.5708°
Mean anomaly
251.5973°
Eccentric anomaly
251.58405°
Mean motion
3.76661 °/min
Orbital period
95.58 mins
BSTAR
0.00038613
Loading maneuver chart data...
Computing Atmospheric mass density...
Loading historical data...
Loading historical data...
Loading historical data...
Loading historical data...
Loading historical data...
Loading historical data...
Loading historical data...

Documentation

Showing up to 5 results
|